DLH078 EDDF-EDDL

Flight info

Callsign DLH078
Flight time N/A
Altitude 24000
Route MARUN3W/25C MARUN Y152 ARPEG Z850 ADEMI T854 DOMUX DOMUX1A
Aircraft A319/M-SDE3FGHIRWY/LB1

Departure

Time N/A
Airport Frankfurt Main Airport (EDDF)

Arrival

Time 2026-05-05 17:14
Airport Düsseldorf Airport (EDDL)
Time Latitude Longitude Altitude Speed Heading
2026-05-05 16:49 50.38840 8.45764 17766 ft 399 kts 21°
2026-05-05 16:50 50.41479 8.47239 18370 ft 403 kts 21°
2026-05-05 16:50 50.44122 8.48700 18954 ft 407 kts 21°
2026-05-05 16:50 50.46787 8.50158 19524 ft 410 kts 20°
2026-05-05 16:50 50.49520 8.51529 20096 ft 414 kts 19°
2026-05-05 16:51 50.52284 8.52851 20644 ft 417 kts 18°
2026-05-05 16:51 50.55052 8.54166 21168 ft 421 kts 18°
2026-05-05 16:51 50.57861 8.55502 21685 ft 424 kts 18°
2026-05-05 16:51 50.60658 8.56840 22179 ft 428 kts 19°
2026-05-05 16:52 50.63518 8.58211 22672 ft 431 kts 19°
2026-05-05 16:52 50.66402 8.59598 23142 ft 435 kts 19°
2026-05-05 16:52 50.69308 8.60998 23591 ft 438 kts 19°
2026-05-05 16:52 50.72200 8.62358 23771 ft 440 kts 15°
2026-05-05 16:53 50.75237 8.62760 23757 ft 442 kts 354°
2026-05-05 16:53 50.78157 8.61414 23767 ft 441 kts 332°
2026-05-05 16:53 50.80573 8.58500 23771 ft 438 kts 310°
2026-05-05 16:53 50.82227 8.54466 23778 ft 433 kts 292°
2026-05-05 16:54 50.83041 8.49999 23788 ft 429 kts 277°
2026-05-05 16:54 50.83497 8.45301 23790 ft 428 kts 276°
2026-05-05 16:54 50.83944 8.40710 23788 ft 429 kts 277°
2026-05-05 16:54 50.84424 8.36029 23786 ft 429 kts 277°
2026-05-05 16:55 50.84922 8.31371 23517 ft 429 kts 277°
2026-05-05 16:55 50.85425 8.26798 23066 ft 425 kts 277°
2026-05-05 16:55 50.85941 8.22186 22531 ft 422 kts 277°
2026-05-05 16:55 50.86453 8.17652 22007 ft 418 kts 278°
2026-05-05 16:56 50.86957 8.13184 21510 ft 413 kts 278°
2026-05-05 16:56 50.87460 8.08735 20986 ft 410 kts 278°
2026-05-05 16:56 50.87953 8.04341 20500 ft 405 kts 278°
2026-05-05 16:56 50.88438 8.00018 20018 ft 401 kts 278°
2026-05-05 16:57 50.88923 7.95697 19551 ft 398 kts 278°
2026-05-05 16:57 50.89404 7.91385 19064 ft 394 kts 278°
2026-05-05 16:57 50.89873 7.87169 18569 ft 392 kts 278°
2026-05-05 16:57 50.90345 7.82908 18065 ft 390 kts 278°
2026-05-05 16:58 50.90806 7.78735 17569 ft 388 kts 278°
2026-05-05 16:58 50.91269 7.74534 17072 ft 386 kts 278°
2026-05-05 16:58 50.91726 7.70371 16592 ft 384 kts 278°
2026-05-05 16:58 50.92178 7.66245 16119 ft 381 kts 279°
2026-05-05 16:59 50.92629 7.62099 15650 ft 379 kts 279°
2026-05-05 16:59 50.92888 7.59719 15378 ft 377 kts 279°
2026-05-05 16:59 50.93327 7.55673 14925 ft 375 kts 279°
2026-05-05 16:59 50.93767 7.51601 14452 ft 373 kts 279°
2026-05-05 17:00 50.94203 7.47565 13979 ft 371 kts 279°
2026-05-05 17:00 50.94630 7.43586 13495 ft 368 kts 279°
2026-05-05 17:00 50.95058 7.39592 13017 ft 366 kts 279°
2026-05-05 17:00 50.95474 7.35682 12543 ft 363 kts 279°
2026-05-05 17:01 50.95890 7.31758 12082 ft 360 kts 278°
2026-05-05 17:01 50.96308 7.27815 11629 ft 356 kts 278°
2026-05-05 17:01 50.96713 7.23976 11173 ft 352 kts 278°
2026-05-05 17:01 50.97113 7.20173 10717 ft 349 kts 278°
2026-05-05 17:02 50.97503 7.16460 10468 ft 337 kts 278°
2026-05-05 17:02 50.97877 7.12883 10312 ft 324 kts 278°
2026-05-05 17:02 50.98239 7.09408 10160 ft 312 kts 278°
2026-05-05 17:02 50.98584 7.06090 10012 ft 300 kts 278°
2026-05-05 17:03 50.98915 7.02892 9877 ft 289 kts 278°
2026-05-05 17:03 50.99236 6.99775 9639 ft 283 kts 278°
2026-05-05 17:03 50.99550 6.96716 9275 ft 283 kts 278°
2026-05-05 17:03 50.99864 6.93650 8951 ft 280 kts 278°
2026-05-05 17:04 51.00169 6.90658 8686 ft 276 kts 278°
2026-05-05 17:04 51.00476 6.87655 8399 ft 273 kts 278°
2026-05-05 17:04 51.00777 6.84705 8096 ft 271 kts 279°
2026-05-05 17:04 51.01074 6.81772 7770 ft 269 kts 279°
2026-05-05 17:05 51.01370 6.78856 7460 ft 268 kts 279°
2026-05-05 17:05 51.01664 6.75935 7139 ft 267 kts 279°
2026-05-05 17:05 51.01953 6.73067 6819 ft 266 kts 279°
2026-05-05 17:05 51.02247 6.70166 6504 ft 264 kts 279°
2026-05-05 17:06 51.02532 6.67328 6189 ft 263 kts 280°
2026-05-05 17:06 51.02820 6.64445 5871 ft 262 kts 280°
2026-05-05 17:06 51.03104 6.61597 5563 ft 261 kts 280°
2026-05-05 17:06 51.03384 6.58788 5261 ft 260 kts 280°
2026-05-05 17:07 51.03664 6.55953 5026 ft 255 kts 280°
2026-05-05 17:07 51.03936 6.53238 4932 ft 244 kts 281°
2026-05-05 17:07 51.04465 6.50792 4812 ft 232 kts 309°
2026-05-05 17:07 51.05683 6.49295 4696 ft 222 kts 342°
2026-05-05 17:08 51.07196 6.49023 4421 ft 218 kts 12°
2026-05-05 17:08 51.08636 6.49621 4188 ft 215 kts 18°
2026-05-05 17:08 51.10085 6.50279 3935 ft 215 kts 17°
2026-05-05 17:08 51.11519 6.50906 3682 ft 214 kts 17°
2026-05-05 17:09 51.12961 6.51522 3429 ft 214 kts 16°
2026-05-05 17:09 51.14407 6.52127 3172 ft 213 kts 17°
2026-05-05 17:09 51.15844 6.52726 2992 ft 212 kts 17°
2026-05-05 17:09 51.17204 6.53411 2955 ft 198 kts 32°
2026-05-05 17:10 51.18196 6.54773 2957 ft 183 kts 49°
2026-05-05 17:10 51.18979 6.56277 3015 ft 167 kts 51°
2026-05-05 17:10 51.19682 6.57734 2868 ft 165 kts 52°
2026-05-05 17:10 51.20367 6.59187 2642 ft 162 kts 52°
2026-05-05 17:11 51.21046 6.60630 2424 ft 161 kts 52°
2026-05-05 17:11 51.21714 6.62046 2209 ft 159 kts 52°
2026-05-05 17:11 51.22370 6.63432 2000 ft 158 kts 51°
2026-05-05 17:11 51.23035 6.64835 1788 ft 158 kts 51°
2026-05-05 17:12 51.23697 6.66231 1578 ft 157 kts 51°
2026-05-05 17:12 51.24335 6.67576 1373 ft 145 kts 51°
2026-05-05 17:12 51.24916 6.68799 1175 ft 134 kts 51°
2026-05-05 17:12 51.25466 6.69955 993 ft 129 kts 51°
2026-05-05 17:13 51.26008 6.71094 828 ft 128 kts 51°
2026-05-05 17:13 51.26540 6.72214 662 ft 127 kts 51°
2026-05-05 17:13 51.27074 6.73342 485 ft 127 kts 50°
2026-05-05 17:13 51.27604 6.74463 314 ft 126 kts 50°
2026-05-05 17:14 51.28133 6.75560 140 ft 125 kts 50°
2026-05-05 17:14 51.28543 6.76420 125 ft 56 kts 52°
2026-05-05 17:14 51.28615 6.76619 126 ft 10 kts 110°
2026-05-05 17:14 51.28559 6.76708 126 ft 11 kts 143°
2026-05-05 17:15 51.28523 6.76753 127 ft 4 kts 148°
2026-05-05 17:15 51.28514 6.76758 127 ft 2 kts 160°
2026-05-05 17:15 51.28485 6.76768 127 ft 6 kts 173°
2026-05-05 17:15 51.28427 6.76803 127 ft 11 kts 144°
2026-05-05 17:16 51.28355 6.76870 127 ft 12 kts 175°
2026-05-05 17:16 51.28266 6.76854 128 ft 13 kts 186°
2026-05-05 17:16 51.28171 6.76837 129 ft 13 kts 187°
2026-05-05 17:16 51.28109 6.76814 129 ft 3 kts 199°
2026-05-05 17:17 51.28102 6.76785 129 ft 3 kts 268°
2026-05-05 17:17 51.28104 6.76749 129 ft 3 kts 275°
2026-05-05 17:17 51.28106 6.76720 129 ft 0 kts 274°